Location: Bremen
(53.0830°N, 8.8000°E)
Time: 04:50:35
(UTC+02:00)

X-37B - Pass Details

Date: 05 August 2021
Orbit: 381 x 393 km, 45.0° (Epoch: 29 August)

Event Time Altitude Azimuth Distance (km) Brightness Sun altitude
Exits shadow 04:52:46 - 208° (SSW) 1,445 2.9 -7.6°
Reaches altitude 10° 04:52:57 10° 206° (SSW) 1,395 2.8 -7.6°
Maximum altitude 04:54:55 16° 166° (SSE) 1,113 2.6 -7.4°
Drops below altitude 10° 04:56:54 10° 127° (SE) 1,398 3.6 -7.2°
Sets 04:59:30 0° 104° (ESE) 2,253 5.0 -6.9°
